Wind_Speed
34 34 33 32 34 35 35 35 36 37 39 40 40 40 42 43 44 44 43 42 41 40 39 39 38 39 39 39 40 40 42 43 43 43 44 46 48 49 52 53 54 56 57 57 58 58 58 59 59 60 61 61 60 60 60 61 61 62 63 64 64 62 60 60 59 58 58 58 58 56 55 55 54 53 53 54 55 55 55 57 57 57 57 56 55 56 56 57
33 32 31 32 33 33 33 34 36 36 37 37 38 40 41 41 41 41 40 40 39 39 39 39 39 39 39 39 40 40 41 42 43 44 46 48 50 52 53 54 55 56 56 57 57 58 59 60 60 60 60 60 60 60 60 61 62 63 64 64 64 62 61 60 59 58 58 59 59 59 58 58 57 56 56 56 57 57 59 62 60 57 58 57 57 57 58 59
33 31 30 32 33 32 31 31 32 34 35 35 36 36 37 37 37 37 37 37 37 38 39 39 39 39 38 38 38 39 41 43 44 46 48 50 51 53 54 55 55 56 56 57 58 59 60 60 60 59 59 59 60 61 62 63 64 64 64 63 63 61 61 60 59 58 57 58 59 59 60 60 61 60 60 60 60 62 65 65 61 59 59 58 58 59 60 61
33 32 31 33 33 31 30 28 28 28 30 31 33 34 34 34 35 35 36 36 36 36 37 37 38 37 37 37 38 41 43 44 46 48 49 51 52 54 54 55 55 56 57 58 59 59 59 58 58 58 59 59 60 62 63 64 64 64 63 61 61 60 60 60 58 58 58 57 58 59 60 61 62 62 62 63 64 68 72 68 62 61 61 60 59 59 61 62
33 32 33 33 32 31 32 31 30 28 27 26 27 29 31 32 33 34 35 35 36 36 37 37 36 36 38 39 41 43 44 45 47 49 50 52 53 53 54 55 56 57 58 57 57 57 57 57 57 58 59 60 62 63 63 62 62 62 61 60 59 58 59 59 58 58 58 58 58 59 60 61 62 62 63 64 66 73 75 69 65 64 63 63 63 62 64 65
33 32 33 33 32 32 34 35 34 33 31 30 28 29 31 32 32 33 34 34 34 35 36 37 37 38 40 41 43 44 46 47 49 50 50 51 52 53 54 55 56 56 55 54 54 54 55 57 58 60 61 62 62 62 61 60 59 59 60 59 58 58 58 59 59 58 58 58 58 59 60 62 63 63 64 65 69 74 72 67 66 67 67 68 68 68 69 69
33 33 34 34 35 36 37 38 38 38 36 35 33 32 32 32 31 32 33 33 34 35 36 37 39 40 41 43 44 46 47 48 49 49 50 51 52 54 54 54 54 53 52 52 53 54 56 57 59 61 62 62 62 61 59 58 57 57 58 59 58 58 58 59 59 59 58 58 58 57 59 61 62 62 63 68 73 72 68 66 67 68 69 70 71 72 72 72
35 34 35 36 37 38 40 41 42 41 40 38 36 35 34 33 33 34 33 34 35 36 37 39 40 42 43 43 44 45 46 47 48 49 50 52 52 52 52 51 51 51 52 52 53 55 57 58 60 61 61 61 60 59 58 57 57 56 57 58 59 59 58 59 59 59 59 58 58 57 59 61 62 61 63 70 73 68 66 66 67 68 69 71 72 73 73 74
37 36 37 37 37 37 38 40 41 41 39 38 37 36 35 35 35 35 35 35 36 36 37 38 39 41 42 42 43 44 46 47 48 50 50 50 50 50 49 49 50 51 52 53 55 56 58 59 60 60 59 59 58 57 57 56 56 56 56 57 58 59 59 60 60 60 59 60 59 58 60 63 64 63 66 71 69 65 66 67 67 67 68 71 72 73 74 74
38 39 38 36 36 36 35 36 37 38 38 37 36 36 36 35 35 35 35 34 34 34 35 36 36 37 38 41 43 44 46 47 48 48 48 47 47 48 48 49 50 51 52 54 56 57 58 58 58 58 57 57 56 56 56 56 55 55 55 56 57 58 59 60 60 60 59 60 60 58 60 63 66 67 67 68 65 64 67 67 68 68 69 71 72 72 73 73
39 41 38 35 35 35 36 35 36 37 37 36 36 36 36 35 35 34 34 34 33 34 34 34 34 36 39 41 43 44 45 44 45 45 45 46 46 47 48 49 50 52 53 55 56 56 56 56 56 55 55 55 55 55 55 55 55 55 55 56 57 56 57 58 57 58 57 58 58 56 56 61 68 68 65 64 63 63 65 67 68 68 70 72 72 73 73 73
41 40 37 36 35 35 36 37 37 37 37 37 36 37 36 35 35 34 34 34 34 34 34 34 36 38 40 40 41 41 41 42 43 44 44 45 46 47 48 50 51 53 54 54 55 55 54 54 54 53 53 53 54 54 54 54 54 54 54 55 55 55 56 55 54 55 55 54 55 52 51 59 67 65 60 58 59 60 62 64 67 68 70 71 71 71 72 73
43 38 36 36 36 36 36 37 37 37 38 37 36 36 36 35 35 35 36 35 35 34 34 36 38 39 38 38 38 39 40 41 42 43 44 45 46 48 49 51 52 53 53 53 53 52 52 52 52 52 52 52 53 53 54 54 54 53 53 54 54 55 55 53 52 52 52 52 52 49 47 56 64 60 56 54 53 54 57 60 64 67 68 68 68 69 70 72
45 40 38 38 38 39 38 37 37 37 37 36 36 35 35 35 36 37 37 36 35 34 35 37 39 39 37 37 38 40 41 41 42 43 45 46 47 49 50 51 52 52 52 51 51 50 50 50 51 51 51 51 52 53 53 53 53 53 53 53 52 53 54 52 51 50 50 50 50 47 46 53 60 58 53 50 50 51 53 57 60 63 64 65 66 67 69 71
46 45 43 42 41 41 40 40 38 37 36 35 35 35 35 35 36 36 36 36 36 36 37 39 39 39 38 38 39 40 41 41 43 44 45 47 48 49 50 51 50 50 50 49 49 49 49 49 50 50 51 51 52 52 53 53 53 52 52 53 52 51 52 51 50 50 49 49 49 47 46 52 57 56 52 49 50 50 52 55 57 58 59 61 62 64 66 69
47 47 47 45 44 43 42 41 39 38 37 36 36 35 35 34 35 35 35 37 38 39 39 40 40 39 38 39 40 40 41 42 44 45 46 48 49 49 49 49 49 48 48 48 48 48 48 49 49 50 51 52 52 52 53 53 52 52 52 52 52 51 51 51 50 50 49 49 49 48 48 52 56 56 53 50 50 51 52 54 55 55 56 57 58 60 62 65
47 48 48 47 45 44 43 42 40 39 38 38 37 36 36 36 36 36 37 39 40 40 41 40 39 38 39 40 41 41 42 43 44 46 47 48 49 48 48 47 47 47 47 47 47 48 48 49 50 51 51 52 52 52 53 53 53 52 52 52 52 51 50 50 50 50 49 50 50 49 49 52 55 55 54 51 51 52 53 53 54 54 54 54 55 56 57 59
46 47 47 46 45 44 43 43 42 41 40 39 38 37 38 38 38 39 40 40 41 41 40 39 38 39 40 41 41 42 43 44 45 46 47 48 47 46 46 45 46 46 47 47 47 48 49 50 50 51 52 52 53 53 52 53 53 52 52 52 51 51 51 49 49 49 49 50 50 48 49 53 55 55 54 52 51 53 54 53 53 54 53 54 53 54 54 55
43 44 44 43 42 43 43 43 43 42 40 39 38 38 38 39 40 40 41 41 40 39 39 39 39 40 41 41 42 42 43 44 46 47 47 46 46 45 45 45 46 46 47 47 48 49 49 50 51 52 52 52 53 53 53 53 53 52 52 51 50 50 50 49 47 48 47 47 49 47 47 52 55 55 55 52 50 53 54 52 52 52 53 53 53 53 53 53
40 40 40 39 39 40 41 42 42 41 39 38 38 38 39 40 40 40 40 39 38 38 38 39 40 40 41 41 42 43 44 45 46 47 46 45 44 44 44 45 46 46 46 47 48 49 50 51 52 52 53 53 53 53 54 54 53 53 52 51 50 49 50 49 47 47 46 45 47 46 46 51 55 55 56 53 50 53 54 53 53 53 52 51 52 52 52 52
36 34 33 33 34 36 37 38 38 38 38 38 38 38 38 39 38 38 38 37 37 38 38 39 40 40 41 41 43 44 45 46 46 45 44 44 43 43 45 45 46 47 47 48 50 50 51 52 52 53 53 54 55 54 55 55 55 54 52 51 51 49 49 50 49 47 46 45 45 45 44 50 56 56 57 55 52 52 52 51 52 53 54 53 50 50 50 51
30 28 28 30 32 33 33 34 35 35 36 36 36 36 36 37 37 37 37 37 37 37 38 39 39 40 41 42 44 45 46 45 44 43 43 43 43 44 45 46 46 47 48 50 51 52 52 52 53 53 54 55 56 56 56 56 57 56 53 51 51 51 49 50 50 48 47 46 45 44 41 46 56 59 59 59 57 57 54 50 49 49 54 56 53 50 49 50
26 27 30 31 31 31 31 31 31 31 31 32 32 33 34 35 36 37 37 37 37 38 38 39 40 41 42 43 45 45 44 43 42 42 42 43 43 45 46 47 47 48 49 51 52 52 52 53 54 54 55 57 58 58 57 58 59 58 56 54 52 52 50 49 50 49 49 48 46 45 39 40 52 58 61 62 62 64 62 56 51 48 50 54 55 52 49 48
26 29 32 32 31 31 30 29 28 27 28 29 30 32 34 35 36 37 37 37 37 38 38 39 41 42 43 44 44 43 42 42 41 42 42 43 44 46 47 47 48 49 50 51 53 53 52 53 55 56 57 59 60 61 60 59 60 60 59 57 55 54 53 51 50 48 49 50 50 48 40 36 44 53 61 64 63 68 71 67 59 54 52 53 55 55 51 48
29 32 33 32 31 30 28 27 25 26 27 29 31 33 35 36 37 37 37 37 38 38 40 41 42 43 44 43 42 41 41 41 41 42 43 44 46 47 48 48 49 50 51 52 53 54 54 53 56 58 60 61 62 63 62 61 60 61 62 61 58 57 57 55 53 50 49 49 51 54 48 36 35 44 56 62 62 66 72 74 70 65 61 59 58 59 56 52
32 33 32 31 30 28 27 26 26 27 29 30 32 34 36 37 37 37 38 38 39 40 41 42 42 43 43 42 40 40 40 41 42 43 44 46 47 48 49 50 50 51 52 52 54 55 55 55 57 59 61 64 64 65 66 64 62 62 63 63 62 61 60 59 58 55 52 49 49 56 58 44 32 37 48 54 58 63 67 72 73 70 68 66 65 64 63 60
33 32 30 29 29 28 27 27 28 29 30 32 33 35 36 37 37 38 38 39 40 40 41 42 42 42 41 40 40 40 40 41 43 44 46 47 48 49 50 51 51 52 53 52 54 56 56 57 59 61 63 65 67 67 68 68 66 64 64 64 64 65 64 63 63 61 58 52 48 56 65 55 39 39 45 47 53 59 62 67 70 71 72 71 71 70 69 67
31 29 28 28 29 29 29 29 29 30 31 33 34 35 37 37 38 38 39 39 40 41 41 42 41 41 40 39 39 40 41 42 44 46 47 49 50 51 51 52 52 53 54 53 54 57 57 58 61 62 65 67 68 69 70 70 69 68 68 67 67 67 67 67 67 65 64 57 50 57 67 62 49 46 49 49 51 54 58 63 67 69 72 73 74 73 73 72
29 28 28 29 30 30 30 30 30 31 32 34 35 36 37 38 38 38 38 39 40 41 41 41 40 39 39 39 39 40 42 44 45 47 49 50 51 52 52 53 53 53 55 54 54 57 58 59 62 64 66 68 69 70 71 71 72 72 72 71 71 71 70 71 70 69 69 62 56 61 67 66 58 54 56 56 55 54 56 61 64 67 70 72 74 75 75 75
28 28 28 29 30 30 30 30 31 32 33 34 35 36 37 37 37 37 38 39 41 41 41 39 39 39 39 40 40 42 44 46 47 48 49 51 53 54 54 54 54 53 55 55 55 57 58 60 64 66 68 69 70 71 71 73 73 74 75 75 75 75 75 75 73 73 73 67 63 66 68 69 65 61 63 63 61 59 58 60 64 66 68 70 73 74 75 75
28 29 29 30 30 30 30 30 31 33 33 34 35 35 36 36 36 37 39 40 41 40 39 39 39 39 39 40 42 43 45 46 47 48 50 52 54 56 56 56 55 54 54 56 56 57 59 63 66 67 69 70 71 72 73 74 75 76 78 79 80 80 79 79 77 77 77 72 69 70 71 71 69 67 68 68 67 65 63 63 65 67 68 70 73 74 75 76
29 29 30 30 30 30 31 31 32 33 34 34 35 35 36 36 37 38 39 40 40 39 39 39 39 40 40 41 43 44 45 47 48 49 51 54 56 58 58 58 57 55 54 56 57 58 59 63 67 69 69 70 71 73 75 76 77 79 80 82 84 84 85 84 81 81 81 77 75 75 74 74 72 71 71 71 71 70 68 70 70 71 72 73 74 76 76 77
29 29 30 30 31 31 32 33 33 34 35 35 35 36 37 38 38 39 39 39 38 38 38 39 40 41 41 42 43 44 46 47 49 50 52 54 56 59 61 61 61 61 59 58 58 58 57 60 65 68 69 71 73 75 77 78 79 81 82 84 85 87 89 89 86 86 85 83 80 79 79 78 76 75 74 73 74 74 75 76 76 76 75 75 76 78 78 79
29 29 29 30 31 32 33 34 35 35 36 36 36 37 38 39 39 39 38 38 38 38 39 40 41 42 43 43 44 45 46 48 50 52 53 55 57 60 62 64 65 66 66 65 64 61 58 57 61 64 67 70 73 76 78 79 81 82 83 84 85 88 92 93 92 91 91 89 85 83 83 82 81 81 79 78 78 78 79 80 81 80 79 79 79 80 81 82
30 30 31 31 32 33 34 35 36 36 36 37 38 38 39 39 39 38 38 38 38 39 39 40 42 44 44 44 44 45 47 49 51 53 55 57 59 61 63 65 67 69 70 71 70 68 64 60 61 65 67 70 74 77 80 82 83 83 83 85 87 89 92 95 95 94 95 95 90 86 86 86 86 85 83 83 83 83 84 83 84 84 83 83 82 82 82 83
31 32 32 32 33 35 35 36 37 37 37 38 38 38 38 38 38 38 38 39 39 40 40 41 42 43 44 45 46 47 48 50 52 54 57 60 62 63 64 66 69 71 73 74 75 74 71 65 65 69 71 73 76 78 81 84 85 85 86 88 90 91 93 96 97 96 98 99 95 91 89 88 89 87 85 87 88 88 88 87 86 86 85 85 85 84 84 84
32 32 33 34 35 36 36 37 37 37 37 38 38 38 37 37 37 38 39 40 40 41 41 42 43 43 45 47 49 50 51 53 55 56 59 62 64 65 67 68 71 73 75 76 78 79 77 71 68 72 75 77 78 79 83 86 87 88 90 91 92 93 94 97 100 99 100 101 99 95 92 90 91 89 87 90 91 91 92 91 90 89 89 89 88 87 87 86
31 32 34 34 35 36 36 36 36 36 37 37 37 36 36 36 37 38 39 40 41 42 42 42 43 45 46 48 50 52 54 56 58 59 61 63 65 67 68 70 73 74 76 78 80 82 83 79 73 73 77 80 81 83 86 88 89 91 92 93 95 96 96 97 100 101 103 103 101 97 94 92 91 90 90 91 91 92 93 93 93 93 92 92 92 91 91 90
30 32 33 33 33 34 35 35 35 35 35 35 35 36 36 37 38 39 40 42 42 43 43 43 44 46 48 49 51 53 56 58 60 62 64 66 67 69 70 71 73 76 78 80 82 84 86 86 80 77 80 83 85 87 89 90 91 92 93 95 96 97 98 98 99 101 105 106 104 100 96 92 90 91 93 92 91 91 92 93 94 95 94 94 94 93 93 93
28 29 30 31 31 32 32 33 33 33 34 34 34 35 36 37 39 40 41 43 44 44 44 45 46 48 50 52 53 55 57 60 62 64 67 69 70 70 72 73 75 77 80 83 85 86 88 90 86 82 83 86 88 91 92 92 93 94 95 96 98 100 102 102 100 101 105 108 107 105 99 93 91 94 96 95 94 93 92 92 92 93 93 93 92 92 91 91
26 27 28 28 29 30 30 31 31 32 33 33 35 36 37 38 39 41 42 43 44 45 45 47 49 50 52 54 56 57 59 61 64 67 69 71 71 72 73 75 77 79 82 84 87 89 90 91 90 87 86 88 91 93 94 95 95 96 97 99 101 102 104 104 102 101 103 106 109 110 106 99 96 98 99 97 96 95 93 91 89 89 90 90 89 88 88 88
24 25 26 27 27 28 29 29 30 31 32 34 35 37 38 39 40 42 43 44 45 46 47 49 51 53 54 56 58 59 60 63 67 69 71 72 73 73 75 78 80 82 84 86 88 90 91 92 91 90 90 91 92 94 95 96 97 98 100 101 103 105 106 107 106 104 104 105 108 112 110 104 102 101 99 97 96 95 93 90 88 86 87 88 88 87 86 86
23 24 25 26 26 27 28 29 30 32 33 35 36 37 39 40 42 43 44 45 46 47 49 51 53 55 57 59 60 62 64 66 69 71 72 73 74 75 77 80 82 85 87 88 89 91 93 94 94 92 91 92 94 96 97 98 100 101 103 104 106 108 108 109 109 109 107 105 106 109 108 104 102 101 99 97 95 94 93 90 88 86 85 86 87 86 86 86
23 23 24 25 26 27 28 29 31 32 34 36 37 39 40 42 44 45 46 47 48 49 51 54 56 57 59 62 64 66 68 68 69 71 73 74 76 78 80 83 85 87 88 89 91 92 94 95 96 96 94 94 94 95 96 97 99 102 104 105 105 106 106 106 106 107 107 105 105 107 105 102 101 100 99 98 97 96 94 92 90 88 86 86 86 86 85 85
22 23 24 25 26 28 29 30 32 34 35 37 39 40 42 43 45 46 47 49 50 52 54 56 58 60 62 65 67 69 70 70 71 73 75 77 80 82 84 85 87 89 90 91 92 93 94 96 98 99 99 99 97 96 97 96 97 98 100 101 101 102 102 103 103 104 104 102 102 104 104 101 99 100 100 100 100 98 97 96 95 93 90 88 87 87 86 85
22 23 24 26 27 29 30 32 34 35 37 39 40 42 43 44 45 47 49 51 53 55 57 59 61 63 65 67 69 70 72 73 74 76 79 81 83 85 86 88 89 90 91 92 93 94 95 97 98 100 103 104 104 103 102 101 100 99 99 99 100 100 100 101 101 102 102 101 100 101 103 101 99 99 100 100 99 99 98 97 97 96 94 91 89 88 87 86
23 24 25 27 28 30 32 34 35 37 39 41 42 43 44 45 47 49 51 54 56 58 60 62 64 66 68 69 70 71 73 75 77 79 81 83 85 87 88 89 90 91 92 93 95 95 96 97 99 101 104 106 106 104 104 104 103 102 101 101 101 100 100 100 101 101 101 101 100 100 101 101 99 98 98 97 97 96 96 95 93 93 93 90 88 87 88 88
23 25 26 28 30 32 34 35 37 39 41 42 43 44 45 47 49 52 54 57 59 61 64 65 67 68 69 70 71 72 74 76 79 82 83 85 87 88 89 90 91 92 93 94 95 96 97 98 99 99 101 103 104 103 103 103 104 104 104 103 103 102 101 101 101 101 101 101 100 99 99 99 99 97 95 94 93 92 92 90 89 88 88 86 84 84 85 86
24 26 28 30 31 33 35 37 39 40 42 43 44 45 47 49 52 55 57 60 62 65 66 67 68 69 70 72 73 75 77 79 80 82 84 85 86 87 88 90 90 91 92 93 95 96 97 98 98 96 97 99 101 101 102 103 104 104 104 104 103 102 101 101 101 101 101 101 101 100 99 99 98 96 94 93 91 89 88 87 85 84 83 81 80 81 82 82
25 27 29 31 33 35 37 38 40 41 42 44 46 48 50 52 54 57 60 62 64 66 67 68 70 71 73 75 77 78 79 80 81 82 83 84 86 87 88 89 90 91 93 94 95 96 97 96 96 95 94 97 99 101 102 103 104 104 104 104 103 102 101 101 102 102 102 101 101 101 100 100 99 97 95 94 92 89 88 86 85 84 81 78 77 78 79 79
27 29 32 33 35 36 38 39 41 42 44 46 48 51 53 55 57 60 62 63 64 66 68 70 72 73 75 77 78 79 80 81 82 83 84 85 86 88 89 90 91 92 93 94 94 95 95 95 95 95 95 97 99 100 101 102 102 102 102 102 102 102 102 102 103 104 104 102 101 100 100 99 98 97 96 95 94 92 91 89 88 86 83 80 78 77 77 77
29 31 33 34 36 37 38 40 42 44 46 49 51 53 56 57 59 60 62 64 66 68 70 72 73 74 76 77 78 80 81 82 84 85 86 87 87 89 90 92 93 93 93 93 93 93 94 95 97 97 97 97 98 98 98 99 100 100 101 102 102 103 103 103 103 104 104 104 102 100 99 98 97 95 94 93 94 94 93 93 91 88 85 83 81 79 77 77
Wind_Direction
217 218 219 219 218 220 220 221 222 224 226 225 224 226 230 233 235 237 240 242 244 247 249 251 253 254 255 256 258 260 261 263 263 263 263 263 264 265 266 268 270 273 274 276 277 278 279 280 282 284 286 287 288 289 290 291 292 292 292 291 290 291 291 290 289 288 287 286 285 284 283 281 279 277 275 274 273 273 272 270 268 266 265 262 260 259 259 258
217 217 219 220 219 219 220 221 222 223 226 230 230 230 233 236 238 240 242 243 245 247 248 249 251 253 254 256 257 259 260 260 260 260 261 263 264 266 268 271 273 274 275 276 277 279 280 282 283 285 286 287 288 289 291 292 293 293 292 292 291 291 291 289 289 288 287 286 286 285 284 282 281 280 278 275 273 272 270 268 267 268 267 265 263 262 261 260
214 215 217 219 218 217 219 223 225 226 226 229 230 232 234 235 237 238 240 243 245 247 248 249 250 252 253 254 254 255 256 257 258 260 262 264 267 269 271 273 274 275 275 276 278 280 282 283 284 285 286 288 290 292 293 294 294 293 292 291 291 291 290 289 288 287 285 284 284 284 283 282 281 280 278 277 276 274 271 268 268 268 268 266 265 263 262 261
213 213 213 217 217 213 214 215 218 224 229 232 233 233 234 234 235 236 238 239 242 244 246 247 248 250 251 252 252 253 256 258 260 262 265 267 270 272 273 274 274 275 276 278 279 281 283 284 285 287 289 290 292 293 293 293 292 291 290 289 289 289 288 288 287 286 285 284 283 282 282 281 280 279 277 276 274 272 271 271 270 269 269 268 266 263 262 261
212 212 210 214 216 212 211 210 209 213 220 228 233 236 236 235 235 236 238 240 241 243 245 246 248 250 252 253 254 256 258 260 263 266 269 271 272 273 273 274 275 276 277 279 281 282 283 285 287 289 290 292 292 292 292 291 291 290 290 289 289 289 288 287 287 286 285 284 283 283 282 281 280 279 277 276 272 269 270 273 273 272 271 269 267 265 262 261
210 212 211 211 211 210 211 212 213 214 217 222 228 234 237 238 238 238 240 242 243 245 247 248 249 250 253 255 256 259 260 263 266 269 271 272 272 273 273 275 276 277 279 281 282 284 285 287 289 290 291 292 292 292 292 292 291 291 291 290 290 289 288 288 287 286 284 284 283 282 282 280 280 279 278 276 271 269 272 274 274 273 271 269 268 265 263 262
208 212 213 212 209 208 210 213 217 221 225 229 232 236 239 241 241 242 243 244 246 247 249 252 252 253 256 258 259 262 264 266 269 270 270 271 272 274 275 277 278 280 281 283 285 286 288 289 290 291 292 292 292 293 293 292 292 291 291 291 291 289 289 288 288 287 286 285 284 283 281 280 279 278 277 274 271 272 275 276 275 274 272 270 269 267 266 265
207 212 216 216 213 211 212 215 219 224 230 235 237 239 241 242 242 243 245 246 249 250 252 255 256 258 260 262 265 267 268 269 270 271 271 273 275 276 278 279 281 282 284 286 287 288 289 291 291 292 293 293 293 293 293 292 292 292 292 292 291 291 290 289 288 288 288 287 286 285 283 281 280 278 276 272 273 276 278 277 275 274 273 272 270 269 268 266
205 212 217 219 220 218 218 220 223 227 232 236 238 240 242 243 244 246 247 250 253 255 258 261 263 264 265 267 269 270 270 271 272 273 274 276 277 278 280 281 283 285 286 288 289 290 291 292 292 293 293 293 293 293 293 292 292 292 292 292 292 292 291 291 290 290 290 289 288 287 285 283 281 278 274 273 277 280 279 277 276 274 272 271 270 269 268 266
207 212 216 219 224 226 227 229 230 231 233 237 239 241 243 245 248 250 252 256 259 262 266 267 268 269 269 270 271 271 272 273 274 275 276 277 278 280 281 283 285 287 288 289 290 291 292 292 292 292 292 293 293 293 293 293 293 293 293 293 293 292 292 291 291 291 290 289 288 287 285 284 281 278 276 278 281 280 278 277 276 274 272 271 269 268 267 266
213 215 215 218 223 227 230 233 234 235 236 239 242 244 246 248 250 253 257 260 264 269 270 270 272 273 273 273 273 273 273 274 275 275 277 278 280 281 284 285 287 288 289 291 291 292 292 292 292 292 293 293 293 293 293 294 294 294 294 293 292 291 290 290 290 289 288 287 286 285 284 282 279 278 279 281 281 279 278 277 276 274 272 270 269 268 268 267
219 219 219 221 225 227 229 232 235 237 239 242 244 246 248 250 252 256 260 264 268 270 270 272 274 275 275 275 274 274 274 275 275 277 278 280 282 284 286 287 289 290 291 291 291 291 291 291 292 292 293 293 294 294 295 295 295 295 295 293 293 292 290 290 290 289 288 287 286 285 284 281 278 279 280 280 280 279 279 278 276 274 272 271 270 270 270 269
219 220 222 225 228 230 231 232 235 237 240 243 246 249 251 253 257 260 264 267 270 270 272 273 276 277 276 275 274 274 275 276 277 279 280 283 285 287 288 289 290 291 291 291 291 291 291 291 292 293 293 294 295 295 296 296 296 296 296 295 295 295 293 293 292 291 290 289 288 287 286 283 281 281 281 281 281 280 278 276 275 273 273 273 273 272 271 270
218 219 221 225 229 233 236 237 238 240 242 245 248 253 256 259 261 263 266 268 270 272 274 276 278 278 275 274 275 275 276 278 279 281 284 286 287 289 290 291 291 291 290 290 290 291 291 292 293 294 295 296 297 297 298 298 298 299 299 298 298 298 297 297 296 295 294 293 292 291 290 286 285 285 285 285 284 281 279 276 274 274 275 275 274 273 272 271
216 218 221 225 229 233 237 241 243 245 247 250 253 257 261 264 265 266 267 269 271 275 278 280 281 278 275 275 276 276 278 280 282 284 286 288 289 290 291 291 290 290 290 290 291 292 293 294 295 296 297 298 299 300 300 301 301 302 301 301 300 300 299 300 299 298 298 297 296 296 295 291 290 290 290 289 287 284 282 279 278 278 277 276 275 273 272 271
215 219 222 226 229 233 237 241 245 249 252 255 257 260 263 266 268 269 271 273 275 278 280 280 279 276 275 276 277 278 281 282 285 287 288 289 290 291 291 290 290 290 291 292 293 294 294 296 297 299 300 300 301 302 303 303 303 303 303 302 302 302 302 302 301 301 301 301 301 301 299 296 294 295 294 293 290 288 285 283 282 281 280 279 277 275 273 272
215 219 223 227 231 234 237 241 246 250 253 256 259 262 265 268 270 272 274 275 277 278 279 278 276 274 275 276 278 280 282 285 287 288 290 291 291 291 290 290 291 291 292 293 294 295 296 298 299 300 301 302 302 303 304 304 304 305 305 304 304 303 303 304 304 304 304 303 303 303 301 298 296 295 296 295 293 291 288 286 285 284 282 281 280 278 276 274
216 220 224 229 232 235 239 242 245 249 252 256 259 262 266 269 271 273 274 275 276 276 277 276 273 273 275 277 280 282 285 287 289 290 291 291 291 290 290 291 292 293 294 295 296 297 298 299 300 301 302 303 304 304 304 305 306 306 306 306 305 305 305 305 304 304 304 304 303 303 301 298 296 295 295 294 293 291 289 288 287 286 285 283 281 280 279 278
217 221 226 231 235 238 240 242 245 249 252 256 260 262 265 268 271 272 272 273 274 274 274 272 272 274 276 279 282 285 287 290 291 292 291 291 290 290 291 292 293 295 296 297 297 298 299 300 301 302 303 304 305 305 306 307 307 307 307 306 306 305 304 304 303 302 302 302 302 302 301 299 296 296 294 294 293 291 289 289 288 286 285 284 283 282 281 280
218 224 229 234 238 240 241 243 245 249 253 257 261 263 266 268 269 270 270 270 271 271 271 272 273 276 279 282 285 288 290 292 292 291 291 290 291 292 293 294 295 296 297 297 297 298 299 301 302 304 305 306 306 307 308 308 308 307 307 307 305 305 304 303 303 302 302 301 301 302 303 300 297 296 295 293 293 291 290 290 289 287 285 284 284 283 282 281
220 225 231 235 237 239 241 244 247 251 255 259 261 263 265 265 266 266 267 268 270 271 272 274 276 279 282 286 289 291 292 292 292 291 291 291 292 293 294 296 297 297 297 297 298 298 300 301 303 305 307 308 308 308 309 309 309 308 308 307 306 305 305 304 304 304 303 303 302 303 305 304 300 298 296 294 292 290 289 289 290 290 288 285 283 283 284 283
220 225 232 237 239 241 244 247 250 253 256 258 260 261 261 262 263 264 266 268 270 273 275 277 280 283 286 289 291 292 292 292 291 291 291 292 293 294 295 296 297 297 297 297 298 299 301 303 305 307 309 309 309 309 310 310 310 309 309 308 307 307 307 307 306 307 306 305 305 305 309 309 304 302 300 298 296 293 289 288 288 290 290 289 287 286 286 286
219 227 235 240 242 246 248 251 252 253 254 256 257 257 259 261 263 265 267 269 272 274 277 280 283 286 289 291 291 292 291 291 290 291 291 292 294 295 296 296 296 296 297 298 299 300 303 305 307 309 310 310 310 309 310 310 310 310 309 308 308 307 307 308 308 309 309 308 307 306 310 312 307 306 304 302 301 298 295 291 288 287 288 290 292 291 290 291
219 228 236 241 245 248 251 253 252 252 252 253 254 255 258 261 263 266 269 271 274 277 280 283 286 288 290 291 291 291 290 290 290 291 292 293 294 295 295 296 296 296 297 298 300 302 304 307 309 310 311 311 310 309 310 310 311 310 309 309 308 307 307 307 307 309 309 309 308 306 308 310 306 306 304 303 305 304 301 298 296 293 292 292 294 294 294 293
222 230 236 241 245 248 250 250 250 250 249 249 251 254 257 260 264 268 271 274 277 280 283 286 288 289 290 290 290 290 290 290 291 292 292 293 294 294 295 295 295 296 297 299 301 303 306 309 310 311 311 310 310 309 309 309 310 311 310 309 308 307 307 306 306 307 307 308 309 307 305 303 303 301 299 301 304 303 301 302 302 302 299 297 295 294 292 290
224 231 236 240 243 244 244 244 245 245 246 247 250 254 258 262 266 270 273 277 280 283 285 287 289 290 290 290 290 289 290 291 291 291 292 293 293 294 294 295 296 297 299 301 304 305 308 310 311 310 310 310 309 309 309 309 310 310 309 308 308 307 306 306 306 305 305 306 309 307 302 299 298 292 290 295 297 296 297 300 302 302 300 298 295 293 291 289
223 229 234 236 237 238 239 241 243 245 246 249 253 256 261 265 269 273 276 280 282 285 287 288 290 289 289 289 290 290 291 291 291 292 292 293 293 294 294 295 296 298 300 303 305 307 309 311 310 310 310 309 309 309 309 309 309 309 308 307 306 305 305 305 304 304 304 305 310 307 300 299 301 292 287 288 288 289 293 295 296 297 296 295 294 293 292 291
222 226 229 231 234 237 240 242 244 247 249 253 256 260 264 268 272 276 280 282 285 286 288 289 289 289 289 289 290 291 291 290 291 292 293 293 294 294 295 296 298 299 302 305 307 308 310 310 309 309 308 308 308 308 308 309 309 308 307 306 305 304 304 303 303 304 303 305 309 304 299 300 303 298 291 286 285 287 290 290 291 292 292 292 292 292 292 291
219 222 226 231 235 238 241 244 246 249 252 255 259 262 267 271 276 279 282 284 287 288 289 289 289 288 289 290 290 291 291 291 292 293 294 294 294 295 296 297 299 301 304 306 308 308 309 309 307 307 306 306 307 307 308 308 308 307 306 305 304 303 303 301 302 303 302 304 306 302 299 301 303 300 295 289 287 287 287 287 288 288 289 290 290 290 290 290
218 222 227 232 237 241 244 247 249 252 255 258 262 266 270 274 278 281 284 286 288 289 289 289 289 289 289 290 290 291 292 293 294 294 295 295 296 296 297 298 300 303 305 306 307 308 308 307 305 305 305 306 306 307 307 306 306 306 305 304 303 302 301 301 302 302 301 304 304 301 301 301 302 301 296 292 290 288 286 285 285 285 286 287 287 288 288 288
220 224 228 234 240 244 247 251 254 257 260 263 266 270 273 277 280 283 285 288 289 289 289 289 288 289 290 290 292 292 293 294 295 296 296 297 297 297 298 299 301 303 305 305 306 307 307 306 305 305 305 306 306 306 305 305 305 304 304 303 302 302 302 301 302 302 302 304 303 301 301 301 301 300 295 293 291 290 288 286 284 284 284 284 285 285 286 286
223 226 231 237 242 247 251 254 258 261 264 267 270 273 277 280 282 285 287 288 289 288 288 288 288 289 290 292 293 294 295 295 296 297 298 298 299 299 299 301 302 302 303 303 304 305 306 305 305 305 306 306 306 305 304 304 304 304 303 302 302 303 302 301 302 302 302 303 302 301 301 300 299 296 293 292 292 291 290 288 285 284 283 282 282 282 283 283
227 230 234 239 244 249 253 257 260 263 266 269 273 276 279 282 284 287 288 288 287 287 287 288 289 290 292 293 294 295 296 297 297 298 298 299 300 300 301 302 302 302 302 302 302 303 305 305 305 306 306 305 304 303 303 303 302 302 301 302 303 303 302 302 303 302 302 302 301 301 301 300 298 295 293 292 292 292 290 288 287 285 283 282 282 282 281 280
231 234 238 242 246 250 254 258 261 264 268 271 275 278 281 284 286 287 287 286 286 286 288 289 291 292 293 293 294 295 296 297 298 299 299 299 300 300 302 303 303 304 304 304 304 305 306 306 304 303 302 302 301 301 301 301 300 300 301 302 302 302 301 302 303 303 302 302 301 302 301 299 298 296 295 294 293 292 290 289 288 287 285 284 283 282 281 280
235 238 241 244 248 252 256 259 263 266 270 273 276 279 282 285 286 286 285 285 286 287 289 291 292 294 294 294 295 296 297 298 298 299 300 300 300 300 301 302 303 305 305 306 306 307 307 307 305 302 302 301 300 300 300 300 300 301 302 302 301 301 301 302 302 302 302 301 301 301 300 299 298 296 297 296 294 293 291 290 289 288 287 285 284 282 281 281
238 241 245 248 251 255 258 262 265 269 272 275 278 281 283 284 284 285 285 286 288 289 291 293 293 294 295 296 296 297 297 298 299 300 300 300 300 301 302 303 304 305 306 306 306 306 306 307 306 304 303 302 301 301 301 300 301 302 302 302 301 301 301 301 301 301 301 300 300 300 299 299 298 297 298 297 296 295 294 292 291 290 289 287 286 284 282 281
241 244 247 251 254 257 261 265 268 271 273 276 279 281 282 283 284 285 287 288 290 292 293 294 294 294 295 296 297 298 299 299 300 300 300 300 301 302 304 305 305 305 305 305 306 305 305 306 307 306 304 303 303 302 302 301 302 302 302 302 302 301 301 301 301 301 300 299 299 299 299 299 298 298 298 297 296 296 295 294 293 292 291 289 288 286 284 283
243 246 249 253 256 260 263 266 269 272 275 277 280 281 283 284 285 287 288 290 292 293 293 293 293 294 295 297 298 299 300 301 301 301 301 301 302 303 304 304 304 304 304 304 305 305 305 306 307 306 305 304 304 303 302 302 302 301 301 301 301 301 301 300 300 300 300 299 299 300 300 299 299 298 297 297 296 296 295 295 294 292 291 289 288 287 285 284
244 248 251 255 259 262 265 268 271 274 276 278 281 282 284 286 287 289 291 292 292 293 292 292 292 293 295 296 297 299 300 300 301 302 302 302 303 303 303 303 303 303 303 304 304 305 305 306 308 307 306 305 304 302 301 301 301 301 301 301 300 300 300 300 300 301 301 300 300 300 300 300 300 299 299 298 296 295 294 293 292 290 289 288 286 285 284 283
248 251 255 258 262 264 268 271 274 276 278 280 282 284 286 288 290 291 293 293 292 292 291 292 293 294 295 296 297 299 300 301 301 302 302 302 302 303 302 302 302 303 303 304 305 305 306 306 307 307 305 304 302 302 301 301 301 301 301 302 302 302 301 301 301 301 301 301 301 301 301 301 301 300 299 298 297 295 294 292 290 289 288 286 285 284 283 282
252 255 258 261 265 268 271 274 277 279 281 283 285 287 288 290 292 293 293 292 292 292 291 292 293 294 296 297 298 299 300 301 301 301 301 302 302 302 302 302 302 303 303 304 304 305 305 305 305 305 304 303 302 302 302 302 303 303 303 303 302 302 301 301 301 302 301 302 302 302 302 303 302 300 299 298 297 295 293 292 290 289 288 287 286 285 284 283
255 258 262 266 269 271 275 278 281 283 285 286 288 289 291 292 292 293 292 292 292 291 291 292 294 296 297 298 298 299 300 300 301 301 301 301 302 302 302 302 302 302 303 303 303 303 303 304 304 304 304 303 303 303 303 303 304 304 303 303 303 303 303 303 303 303 303 303 302 300 301 302 301 299 298 298 297 295 294 293 292 291 290 289 288 288 286 285
259 262 266 270 274 277 280 283 284 286 287 288 290 291 292 292 293 293 293 292 292 292 293 294 296 298 298 298 299 299 300 300 301 301 301 301 301 301 301 302 302 302 303 303 304 304 304 304 304 304 304 304 304 304 305 305 305 305 304 304 303 303 303 303 302 302 302 301 300 299 299 300 300 299 299 299 297 296 295 295 294 292 291 290 289 288 287 286
264 268 272 276 279 282 284 286 287 288 289 290 291 292 293 293 294 294 293 293 294 295 296 297 298 298 298 299 299 300 300 300 301 301 301 301 301 302 302 302 303 303 304 304 304 304 304 305 305 305 305 304 303 303 303 304 304 304 303 303 302 301 300 300 300 300 300 300 300 300 300 301 301 300 300 299 298 298 297 297 295 294 293 291 290 289 288 287
271 275 278 281 283 285 286 288 289 290 291 291 292 293 294 294 294 294 294 295 296 296 297 297 298 298 299 299 300 301 301 302 302 302 302 302 303 303 303 304 304 305 305 305 305 305 305 306 306 306 306 305 305 304 304 304 303 302 301 301 301 300 300 300 300 300 300 300 301 300 301 301 301 301 300 300 299 299 298 298 297 296 294 293 292 290 289 288
275 279 282 284 286 287 288 289 291 292 292 292 293 294 294 294 294 294 295 295 296 297 297 298 298 299 300 301 302 303 303 304 304 304 304 304 304 305 305 305 305 305 305 305 306 306 307 307 307 307 307 307 307 307 307 306 305 303 302 301 301 301 301 301 301 302 301 302 302 301 301 301 301 300 299 299 299 298 298 297 296 296 295 294 293 292 291 289
279 282 284 286 287 288 290 291 292 293 293 294 295 295 294 294 294 295 296 297 297 298 298 299 300 301 302 303 304 304 304 304 304 304 304 305 305 305 305 305 306 306 306 307 307 307 307 307 307 308 307 307 307 307 306 306 305 305 304 304 304 304 304 304 303 303 302 302 302 301 300 300 300 299 298 298 297 297 296 295 295 295 294 294 293 293 291 290
282 284 285 287 289 291 293 294 294 295 295 296 296 295 296 297 297 298 298 299 299 300 301 302 303 304 304 304 304 304 304 304 304 305 305 305 305 305 305 306 306 306 306 306 307 307 307 307 307 307 306 305 305 306 306 306 306 306 306 306 306 305 305 304 303 303 302 302 301 301 300 299 299 298 298 297 297 295 295 294 293 292 292 292 292 291 289 289
285 286 288 290 292 293 294 295 295 296 296 297 297 298 298 299 299 299 300 301 302 302 303 304 305 305 305 305 305 304 304 305 305 305 305 305 305 305 306 306 306 306 307 307 307 307 307 307 307 306 305 305 305 306 306 307 307 307 306 306 306 305 305 304 303 303 302 302 302 302 301 301 300 300 300 299 298 297 296 295 293 292 291 291 290 289 288 288
288 290 291 292 293 293 294 296 297 297 298 299 299 299 300 300 300 301 301 302 303 304 304 305 305 305 306 306 306 306 306 305 305 305 305 305 305 306 306 307 307 308 308 308 308 308 307 307 306 306 306 307 307 308 308 308 307 307 306 306 306 305 305 304 303 303 303 303 303 303 303 303 303 303 303 302 301 300 299 297 296 294 293 292 291 289 288 288
292 293 293 293 294 295 296 297 298 298 299 299 300 300 301 301 302 302 303 304 305 305 305 305 306 306 306 307 307 306 306 307 307 307 307 307 307 308 308 309 309 309 309 309 308 307 307 307 307 308 309 309 309 308 308 307 306 305 305 305 305 305 305 304 304 304 304 304 303 303 303 303 304 304 304 304 303 302 301 300 298 297 295 294 292 290 289 287
292 293 294 295 296 297 298 298 298 299 300 300 300 301 301 302 303 304 305 305 305 305 305 306 306 307 307 307 307 308 308 308 308 308 309 309 310 310 310 310 310 310 309 309 308 309 309 310 310 310 310 310 308 308 307 306 306 305 305 305 305 305 305 305 304 304 304 304 304 304 304 304 304 304 304 303 303 302 301 300 299 297 296 295 293 292 290 288
Height
10637 10640 10644 10647 10650 10652 10655 10657 10660 10662 10664 10667 10670 10672 10674 10676 10678 10680 10683 10685 10686 10688 10690 10691 10692 10693 10693 10694 10695 10696 10696 10696 10696 10696 10695 10695 10694 10693 10693 10692 10691 10690 10688 10687 10686 10684 10683 10682 10680 10678 10677 10675 10673 10671 10669 10667 10664 10662 10659 10655 10652 10653 10653 10650 10648 10647 10646 10644 10643 10643 10644 10643 10643 10644 10644 10643 10642 10641 10641 10638 10638 10640 10641 10643 10645 10646 10646 10645
10636 10639 10643 10645 10648 10650 10653 10655 10657 10660 10662 10665 10668 10670 10672 10674 10677 10679 10681 10683 10684 10686 10687 10688 10689 10690 10691 10691 10692 10692 10692 10692 10691 10691 10690 10690 10689 10689 10688 10687 10686 10685 10684 10682 10680 10679 10678 10676 10675 10673 10671 10669 10667 10665 10663 10660 10658 10655 10652 10649 10646 10646 10645 10643 10642 10641 10639 10637 10635 10636 10636 10636 10635 10636 10637 10636 10634 10634 10632 10627 10630 10634 10635 10637 10639 10639 10639 10638
10634 10637 10640 10643 10646 10649 10651 10653 10655 10658 10660 10663 10666 10668 10670 10673 10675 10677 10679 10680 10682 10683 10684 10685 10686 10687 10687 10688 10688 10688 10687 10687 10687 10687 10686 10686 10685 10684 10683 10682 10681 10680 10679 10677 10675 10674 10672 10671 10669 10667 10665 10663 10661 10658 10656 10653 10651 10648 10646 10643 10641 10640 10637 10636 10637 10635 10634 10632 10630 10629 10628 10628 10627 10628 10629 10628 10628 10625 10619 10617 10623 10628 10628 10630 10633 10633 10632 10630
10632 10635 10638 10641 10644 10647 10650 10652 10654 10656 10659 10661 10664 10666 10668 10670 10672 10674 10676 10677 10679 10680 10680 10681 10682 10683 10684 10684 10684 10684 10684 10684 10683 10683 10683 10682 10681 10680 10679 10678 10676 10675 10674 10672 10671 10669 10667 10665 10663 10661 10659 10658 10655 10653 10651 10648 10645 10641 10639 10637 10635 10634 10631 10630 10630 10629 10628 10627 10625 10624 10623 10621 10620 10621 10620 10620 10621 10614 10605 10610 10617 10620 10621 10623 10625 10625 10624 10622
10630 10633 10636 10639 10642 10646 10648 10650 10652 10655 10657 10659 10662 10664 10666 10668 10670 10672 10673 10674 10676 10677 10677 10678 10679 10680 10681 10681 10681 10680 10680 10680 10679 10679 10679 10678 10677 10675 10674 10673 10671 10670 10669 10668 10666 10664 10662 10660 10658 10656 10653 10652 10650 10648 10645 10643 10640 10635 10632 10631 10630 10628 10625 10623 10623 10623 10621 10621 10619 10618 10617 10614 10612 10613 10612 10612 10611 10600 10594 10603 10610 10612 10614 10614 10615 10616 10614 10613
10628 10631 10634 10638 10641 10644 10647 10649 10651 10653 10655 10657 10659 10661 10663 10665 10667 10669 10670 10672 10673 10674 10674 10675 10676 10676 10677 10677 10677 10677 10677 10676 10675 10675 10674 10673 10672 10670 10669 10668 10667 10666 10664 10663 10661 10659 10657 10655 10652 10650 10648 10645 10643 10641 10639 10636 10633 10630 10625 10624 10624 10621 10619 10616 10615 10616 10615 10615 10613 10612 10611 10606 10605 10605 10604 10602 10596 10588 10589 10598 10603 10604 10605 10604 10604 10604 10604 10604
10626 10629 10632 10636 10639 10642 10645 10647 10649 10651 10653 10655 10657 10659 10661 10663 10664 10666 10667 10669 10670 10671 10672 10672 10672 10673 10673 10673 10673 10673 10672 10672 10671 10671 10670 10668 10667 10666 10664 10663 10662 10661 10659 10658 10656 10654 10652 10649 10647 10644 10642 10639 10636 10634 10633 10630 10627 10624 10620 10618 10617 10615 10614 10610 10609 10608 10607 10608 10606 10606 10604 10599 10598 10598 10596 10589 10580 10581 10587 10593 10594 10594 10593 10593 10593 10593 10594 10595
10624 10628 10630 10633 10636 10639 10642 10645 10647 10649 10651 10653 10655 10657 10658 10660 10662 10663 10665 10666 10667 10668 10669 10669 10669 10669 10669 10669 10669 10669 10668 10667 10667 10666 10665 10664 10662 10661 10660 10658 10657 10656 10654 10653 10651 10649 10646 10644 10641 10638 10635 10632 10630 10628 10626 10624 10621 10619 10615 10612 10609 10608 10606 10604 10602 10600 10600 10600 10599 10599 10595 10590 10589 10590 10587 10573 10568 10579 10584 10584 10585 10584 10583 10582 10582 10582 10583 10584
10623 10625 10628 10631 10634 10637 10640 10643 10645 10647 10649 10651 10653 10654 10656 10658 10659 10661 10662 10663 10664 10665 10666 10666 10666 10666 10666 10666 10665 10665 10664 10663 10662 10661 10660 10659 10658 10657 10655 10654 10653 10651 10649 10648 10645 10643 10641 10638 10635 10632 10630 10626 10624 10622 10620 10618 10615 10613 10611 10607 10603 10601 10598 10596 10594 10593 10593 10591 10590 10591 10586 10582 10578 10578 10574 10563 10567 10578 10576 10574 10575 10574 10574 10571 10571 10571 10571 10572
10621 10623 10626 10630 10633 10636 10638 10641 10643 10645 10647 10648 10650 10652 10654 10655 10657 10658 10659 10660 10661 10662 10662 10662 10662 10662 10662 10661 10661 10660 10659 10659 10658 10657 10656 10655 10654 10653 10651 10650 10648 10646 10644 10642 10640 10637 10635 10632 10629 10627 10624 10621 10619 10616 10613 10611 10610 10607 10605 10601 10598 10595 10591 10589 10588 10587 10586 10583 10582 10583 10579 10573 10566 10563 10564 10561 10567 10571 10565 10565 10564 10564 10563 10560 10560 10559 10559 10561
10618 10620 10625 10629 10631 10634 10637 10639 10641 10643 10645 10646 10648 10650 10652 10653 10654 10656 10657 10658 10658 10659 10659 10659 10659 10658 10658 10657 10657 10656 10655 10655 10654 10652 10652 10651 10650 10649 10647 10646 10643 10641 10639 10637 10634 10631 10629 10626 10624 10621 10619 10616 10613 10611 10608 10605 10604 10601 10599 10595 10592 10590 10586 10584 10584 10581 10579 10577 10575 10576 10574 10564 10551 10551 10558 10560 10562 10561 10557 10555 10553 10553 10551 10548 10548 10548 10549 10550
10616 10619 10623 10627 10630 10632 10635 10637 10639 10641 10642 10644 10646 10648 10649 10651 10652 10653 10654 10655 10656 10656 10656 10656 10656 10655 10654 10653 10653 10652 10651 10651 10650 10649 10648 10647 10646 10644 10643 10641 10639 10636 10634 10632 10629 10626 10624 10621 10618 10616 10613 10610 10607 10605 10602 10599 10598 10595 10593 10589 10586 10584 10581 10579 10579 10575 10572 10570 10568 10570 10568 10552 10540 10545 10554 10555 10554 10552 10550 10546 10542 10541 10538 10537 10539 10539 10540 10539
10614 10618 10622 10625 10628 10630 10633 10635 10637 10638 10640 10642 10644 10645 10647 10648 10649 10650 10651 10652 10652 10653 10653 10652 10652 10651 10650 10650 10649 10648 10648 10647 10646 10645 10644 10643 10641 10640 10638 10636 10633 10631 10628 10626 10624 10621 10619 10616 10613 10610 10608 10605 10602 10599 10596 10594 10592 10589 10586 10583 10580 10576 10573 10573 10572 10568 10565 10563 10561 10563 10561 10544 10532 10539 10546 10548 10547 10545 10541 10536 10531 10529 10528 10529 10530 10531 10531 10529
10613 10618 10621 10624 10626 10628 10631 10633 10635 10637 10638 10640 10641 10643 10644 10645 10647 10648 10648 10649 10649 10649 10649 10649 10648 10647 10647 10646 10646 10645 10644 10643 10642 10641 10640 10638 10637 10635 10633 10631 10628 10626 10623 10621 10618 10616 10613 10610 10608 10605 10602 10600 10596 10593 10590 10587 10585 10583 10579 10576 10574 10570 10565 10565 10564 10561 10558 10556 10554 10555 10552 10538 10527 10531 10538 10540 10538 10535 10531 10526 10522 10520 10520 10521 10521 10522 10521 10519
10613 10617 10620 10622 10625 10627 10629 10631 10633 10635 10636 10638 10639 10640 10642 10643 10644 10644 10645 10645 10645 10646 10645 10645 10644 10644 10643 10643 10642 10641 10640 10640 10638 10637 10636 10634 10632 10630 10628 10625 10623 10621 10618 10616 10613 10610 10608 10605 10602 10599 10596 10593 10591 10587 10584 10581 10578 10576 10573 10568 10567 10564 10559 10558 10556 10553 10551 10548 10546 10546 10543 10533 10523 10524 10529 10531 10528 10526 10522 10517 10515 10514 10513 10513 10512 10512 10511 10509
10613 10616 10618 10621 10623 10625 10627 10629 10631 10633 10634 10636 10637 10638 10639 10640 10641 10641 10642 10642 10642 10642 10642 10641 10641 10640 10640 10639 10638 10637 10637 10636 10634 10633 10631 10629 10627 10625 10623 10620 10618 10615 10613 10610 10607 10605 10602 10599 10596 10593 10590 10587 10585 10582 10578 10575 10573 10570 10567 10563 10560 10558 10554 10552 10549 10547 10545 10541 10539 10538 10535 10527 10519 10517 10520 10522 10519 10516 10513 10510 10508 10507 10505 10505 10504 10503 10502 10501
10612 10615 10617 10619 10621 10624 10626 10628 10629 10631 10632 10633 10635 10636 10637 10637 10638 10638 10639 10639 10639 10639 10638 10638 10637 10637 10636 10635 10634 10634 10633 10632 10630 10629 10627 10624 10622 10620 10618 10615 10612 10610 10608 10605 10602 10599 10596 10594 10591 10588 10585 10582 10579 10576 10573 10569 10567 10564 10561 10557 10554 10552 10549 10546 10543 10540 10538 10535 10532 10531 10527 10520 10514 10511 10512 10513 10512 10507 10504 10503 10500 10499 10498 10497 10496 10495 10494 10493
10610 10613 10616 10618 10620 10622 10624 10626 10628 10629 10630 10631 10633 10634 10634 10635 10635 10636 10636 10636 10636 10635 10635 10635 10634 10633 10633 10632 10631 10630 10629 10628 10626 10624 10622 10619 10617 10615 10612 10610 10607 10605 10602 10600 10597 10594 10591 10588 10585 10582 10579 10576 10573 10571 10568 10564 10561 10558 10555 10552 10548 10545 10543 10541 10538 10535 10532 10529 10526 10526 10522 10513 10508 10505 10504 10506 10505 10500 10496 10496 10494 10492 10490 10489 10488 10487 10485 10485
10609 10612 10614 10617 10619 10621 10623 10624 10626 10627 10628 10630 10631 10632 10632 10633 10633 10633 10633 10633 10632 10632 10631 10631 10630 10630 10629 10628 10627 10626 10625 10623 10621 10619 10617 10614 10612 10610 10607 10605 10602 10599 10597 10594 10591 10588 10586 10583 10580 10577 10574 10571 10568 10564 10562 10559 10555 10552 10549 10546 10543 10539 10536 10535 10533 10530 10529 10525 10521 10520 10517 10508 10501 10498 10496 10498 10498 10492 10489 10489 10487 10485 10483 10481 10480 10479 10478 10477
10608 10611 10614 10616 10617 10619 10621 10622 10624 10625 10627 10628 10629 10629 10630 10630 10630 10630 10629 10629 10629 10629 10628 10628 10627 10627 10626 10625 10623 10622 10620 10618 10616 10614 10611 10609 10607 10604 10602 10599 10597 10594 10591 10589 10586 10583 10580 10578 10575 10572 10569 10565 10562 10559 10555 10552 10549 10547 10544 10540 10537 10535 10531 10528 10528 10526 10524 10522 10517 10514 10511 10501 10494 10492 10488 10490 10491 10485 10482 10482 10479 10477 10476 10475 10474 10472 10471 10469
10608 10610 10613 10614 10615 10617 10619 10620 10622 10624 10625 10626 10626 10627 10627 10627 10627 10626 10626 10626 10626 10626 10625 10625 10624 10623 10622 10621 10619 10617 10615 10613 10611 10608 10606 10604 10602 10599 10597 10594 10592 10589 10586 10584 10581 10578 10576 10573 10570 10567 10563 10559 10556 10553 10550 10546 10543 10540 10538 10535 10531 10529 10526 10522 10521 10520 10518 10516 10513 10510 10508 10496 10485 10483 10480 10480 10482 10478 10477 10476 10473 10470 10467 10467 10468 10466 10464 10462
10607 10609 10611 10612 10613 10615 10617 10619 10620 10621 10622 10623 10623 10623 10623 10623 10623 10623 10623 10623 10623 10623 10622 10621 10621 10620 10618 10617 10615 10613 10611 10609 10606 10604 10601 10599 10597 10594 10592 10589 10587 10584 10581 10579 10576 10573 10571 10568 10565 10562 10558 10554 10550 10547 10544 10540 10536 10533 10532 10529 10525 10522 10521 10516 10513 10512 10510 10509 10508 10505 10505 10495 10479 10474 10470 10469 10469 10466 10468 10470 10468 10466 10459 10456 10458 10459 10459 10456
10606 10608 10609 10610 10612 10614 10615 10617 10618 10619 10619 10620 10620 10620 10620 10620 10620 10620 10620 10621 10620 10620 10619 10618 10617 10616 10614 10612 10610 10608 10606 10604 10601 10599 10597 10594 10592 10589 10587 10584 10581 10579 10576 10574 10571 10568 10566 10563 10559 10556 10552 10548 10544 10540 10539 10535 10529 10526 10523 10522 10519 10515 10514 10512 10507 10506 10503 10501 10501 10500 10503 10496 10479 10469 10462 10458 10457 10452 10452 10458 10461 10461 10457 10452 10450 10451 10453 10452
10605 10607 10608 10609 10611 10612 10613 10614 10615 10616 10616 10617 10617 10617 10617 10617 10617 10617 10617 10618 10617 10616 10616 10614 10613 10612 10610 10608 10606 10604 10601 10599 10597 10594 10592 10589 10587 10584 10581 10579 10576 10574 10572 10569 10566 10563 10562 10559 10554 10550 10546 10542 10538 10534 10532 10529 10524 10518 10514 10513 10512 10507 10506 10505 10503 10502 10498 10494 10492 10491 10498 10497 10483 10470 10458 10449 10449 10441 10432 10437 10446 10451 10452 10450 10446 10443 10445 10445
10604 10606 10607 10608 10609 10610 10611 10612 10613 10614 10614 10615 10615 10615 10615 10615 10615 10615 10614 10614 10614 10613 10612 10610 10609 10608 10605 10604 10601 10599 10597 10594 10592 10589 10587 10584 10582 10579 10576 10574 10571 10569 10567 10565 10561 10558 10556 10554 10549 10544 10540 10535 10531 10527 10524 10523 10519 10513 10507 10503 10503 10500 10497 10496 10495 10496 10494 10492 10486 10479 10484 10494 10489 10475 10460 10450 10447 10437 10424 10421 10429 10436 10439 10440 10439 10435 10434 10434
10603 10604 10605 10607 10607 10608 10609 10610 10611 10611 10612 10612 10613 10612 10612 10612 10612 10612 10611 10611 10610 10609 10608 10606 10605 10603 10601 10599 10597 10594 10592 10589 10587 10584 10582 10579 10576 10573 10570 10568 10566 10564 10562 10561 10557 10553 10551 10548 10543 10539 10534 10528 10524 10520 10515 10513 10513 10508 10501 10496 10494 10491 10489 10487 10486 10486 10487 10488 10486 10472 10467 10481 10489 10477 10464 10457 10448 10438 10429 10421 10419 10423 10424 10425 10425 10424 10423 10422
10601 10602 10604 10605 10606 10606 10607 10608 10609 10609 10610 10610 10610 10610 10610 10610 10610 10609 10608 10608 10607 10605 10604 10602 10600 10598 10596 10594 10592 10590 10587 10584 10582 10579 10577 10574 10571 10568 10565 10563 10561 10559 10558 10557 10553 10548 10546 10543 10537 10532 10528 10521 10517 10512 10507 10503 10502 10500 10495 10490 10487 10483 10481 10479 10476 10476 10477 10481 10484 10469 10453 10463 10480 10473 10462 10458 10450 10441 10435 10427 10419 10415 10412 10411 10410 10410 10411 10411
10599 10601 10602 10603 10604 10604 10605 10606 10607 10608 10608 10608 10608 10608 10607 10607 10607 10606 10605 10604 10602 10601 10599 10598 10596 10593 10591 10589 10587 10585 10582 10580 10577 10574 10571 10568 10565 10562 10560 10558 10557 10555 10553 10553 10549 10544 10541 10538 10531 10526 10521 10515 10510 10505 10500 10495 10491 10489 10485 10482 10479 10475 10473 10469 10467 10467 10466 10472 10479 10466 10447 10450 10464 10464 10454 10450 10448 10444 10437 10427 10419 10412 10405 10402 10399 10398 10399 10398
10598 10599 10600 10601 10602 10603 10603 10604 10605 10606 10606 10606 10606 10605 10605 10604 10603 10603 10602 10600 10598 10596 10595 10593 10591 10589 10587 10585 10583 10580 10578 10576 10573 10569 10566 10562 10559 10556 10554 10552 10551 10551 10548 10547 10545 10539 10536 10532 10525 10520 10515 10509 10504 10498 10493 10488 10482 10478 10474 10471 10468 10466 10464 10459 10459 10458 10455 10461 10468 10458 10445 10442 10449 10451 10444 10439 10440 10439 10434 10424 10416 10409 10402 10397 10393 10390 10388 10387
10596 10597 10598 10599 10600 10601 10602 10602 10603 10603 10603 10603 10603 10603 10602 10601 10600 10599 10598 10596 10594 10592 10590 10588 10586 10584 10582 10580 10579 10576 10573 10571 10568 10565 10561 10557 10553 10549 10548 10547 10547 10547 10543 10541 10540 10535 10531 10525 10518 10514 10508 10503 10497 10492 10486 10480 10475 10469 10463 10460 10457 10454 10453 10449 10450 10448 10444 10451 10455 10448 10441 10436 10437 10437 10430 10427 10428 10428 10426 10419 10410 10404 10398 10392 10387 10383 10380 10377
10594 10595 10596 10597 10598 10599 10600 10600 10600 10601 10601 10600 10600 10599 10599 10598 10597 10595 10594 10592 10590 10588 10586 10584 10582 10580 10578 10576 10574 10572 10569 10566 10563 10560 10555 10551 10546 10542 10541 10541 10541 10542 10540 10535 10534 10531 10526 10518 10511 10506 10501 10495 10490 10483 10478 10472 10467 10461 10454 10449 10444 10442 10440 10437 10439 10437 10433 10440 10441 10437 10433 10428 10427 10425 10417 10413 10413 10413 10413 10410 10403 10397 10391 10385 10380 10376 10372 10368
10592 10593 10594 10595 10596 10597 10597 10598 10598 10598 10598 10597 10597 10596 10595 10594 10593 10591 10589 10587 10586 10584 10582 10579 10577 10576 10574 10573 10570 10567 10565 10561 10558 10554 10550 10545 10540 10535 10533 10534 10533 10535 10535 10532 10528 10526 10522 10513 10504 10499 10494 10488 10481 10475 10468 10463 10459 10452 10445 10439 10433 10430 10425 10423 10427 10425 10422 10427 10427 10424 10422 10419 10416 10412 10407 10403 10399 10399 10398 10394 10391 10387 10382 10377 10372 10367 10364 10359
10590 10591 10593 10594 10594 10595 10595 10595 10595 10595 10594 10594 10593 10592 10591 10589 10588 10587 10586 10584 10582 10580 10578 10575 10574 10572 10571 10569 10566 10563 10560 10556 10553 10549 10545 10540 10535 10528 10525 10525 10523 10523 10525 10525 10524 10523 10521 10513 10502 10494 10488 10480 10473 10467 10460 10455 10450 10443 10438 10432 10426 10419 10410 10408 10412 10410 10409 10412 10414 10412 10408 10405 10402 10396 10394 10393 10388 10385 10382 10377 10374 10372 10369 10366 10362 10357 10353 10348
10589 10590 10591 10592 10592 10592 10592 10592 10592 10591 10591 10590 10589 10588 10587 10585 10584 10583 10581 10580 10578 10576 10575 10573 10570 10568 10567 10565 10562 10559 10556 10552 10547 10544 10539 10535 10530 10524 10519 10516 10513 10511 10510 10510 10511 10513 10515 10513 10503 10493 10486 10477 10467 10459 10453 10447 10441 10436 10432 10426 10420 10412 10400 10394 10395 10393 10391 10392 10397 10399 10393 10388 10386 10380 10379 10379 10375 10370 10365 10360 10357 10355 10354 10351 10348 10345 10340 10335
10587 10588 10589 10590 10590 10590 10590 10589 10589 10588 10587 10587 10585 10584 10583 10581 10580 10578 10577 10576 10575 10573 10572 10570 10567 10563 10561 10560 10558 10555 10552 10548 10543 10538 10533 10528 10524 10520 10516 10511 10507 10503 10500 10497 10496 10497 10501 10504 10497 10487 10480 10472 10462 10453 10445 10437 10431 10429 10426 10419 10411 10406 10396 10387 10383 10381 10375 10371 10378 10384 10379 10373 10368 10365 10365 10362 10358 10353 10348 10345 10341 10337 10336 10333 10330 10328 10325 10321
10585 10586 10587 10587 10587 10587 10586 10586 10585 10585 10584 10583 10581 10580 10579 10578 10576 10575 10573 10572 10571 10570 10568 10566 10563 10560 10557 10554 10552 10549 10546 10543 10539 10534 10527 10521 10517 10514 10511 10507 10502 10497 10492 10487 10483 10481 10485 10491 10487 10477 10469 10462 10454 10447 10437 10428 10422 10419 10416 10409 10401 10396 10389 10378 10372 10372 10364 10354 10358 10365 10365 10361 10354 10351 10351 10345 10339 10336 10330 10327 10324 10319 10316 10313 10310 10308 10306 10303
10583 10584 10584 10584 10584 10584 10583 10583 10582 10581 10580 10579 10578 10577 10576 10575 10573 10572 10570 10569 10568 10566 10564 10562 10558 10556 10552 10549 10545 10543 10540 10536 10532 10528 10522 10516 10511 10507 10505 10501 10495 10490 10484 10478 10473 10467 10467 10476 10478 10468 10458 10451 10444 10438 10428 10419 10414 10409 10402 10397 10391 10385 10380 10369 10357 10356 10351 10342 10341 10346 10348 10346 10340 10339 10338 10331 10324 10319 10312 10308 10305 10301 10296 10293 10289 10287 10285 10284
10581 10581 10582 10581 10581 10581 10580 10579 10579 10578 10577 10576 10574 10573 10573 10572 10570 10569 10567 10566 10564 10562 10560 10558 10554 10550 10548 10545 10540 10537 10533 10529 10524 10521 10516 10511 10506 10502 10499 10494 10488 10482 10476 10470 10465 10458 10452 10458 10467 10461 10448 10441 10434 10426 10418 10411 10406 10399 10392 10387 10380 10373 10370 10362 10349 10340 10333 10325 10323 10327 10330 10329 10325 10323 10320 10316 10312 10306 10300 10294 10289 10284 10280 10275 10272 10269 10266 10264
10579 10579 10579 10578 10578 10578 10577 10576 10576 10575 10574 10573 10572 10571 10570 10569 10568 10566 10564 10562 10560 10557 10555 10553 10550 10546 10543 10540 10537 10533 10528 10523 10519 10514 10509 10505 10501 10497 10493 10488 10481 10475 10469 10462 10456 10451 10442 10439 10450 10452 10440 10431 10423 10414 10408 10402 10395 10390 10383 10376 10369 10361 10355 10350 10343 10332 10317 10307 10304 10305 10309 10312 10309 10304 10299 10296 10294 10290 10287 10282 10275 10268 10264 10260 10257 10253 10250 10247
10576 10576 10576 10576 10575 10575 10574 10573 10573 10572 10571 10570 10569 10568 10568 10567 10565 10562 10560 10557 10554 10553 10550 10547 10544 10541 10538 10535 10532 10528 10524 10518 10513 10508 10502 10498 10494 10490 10486 10480 10474 10467 10461 10454 10446 10442 10435 10427 10431 10437 10430 10420 10410 10401 10396 10391 10384 10378 10371 10364 10355 10347 10338 10332 10330 10324 10307 10294 10288 10284 10286 10294 10293 10285 10278 10275 10273 10270 10268 10265 10260 10254 10248 10244 10241 10237 10234 10231
10574 10574 10573 10573 10573 10572 10572 10571 10570 10570 10569 10568 10567 10566 10564 10563 10561 10558 10555 10552 10549 10547 10545 10542 10539 10536 10533 10529 10526 10523 10519 10513 10507 10501 10495 10491 10487 10483 10477 10471 10466 10460 10454 10447 10439 10433 10427 10420 10419 10421 10419 10410 10400 10391 10384 10377 10371 10364 10357 10351 10342 10332 10324 10316 10314 10313 10301 10286 10276 10264 10262 10272 10275 10266 10259 10257 10253 10249 10247 10245 10242 10238 10231 10226 10223 10221 10218 10215
10571 10571 10571 10570 10570 10570 10569 10569 10568 10568 10566 10565 10564 10563 10561 10559 10556 10553 10550 10547 10544 10542 10539 10536 10533 10530 10527 10524 10520 10517 10513 10507 10500 10494 10488 10483 10479 10475 10469 10463 10458 10452 10446 10440 10433 10425 10418 10412 10409 10408 10404 10397 10387 10379 10373 10366 10359 10352 10344 10337 10327 10318 10309 10299 10293 10291 10287 10280 10268 10252 10245 10251 10253 10246 10241 10239 10234 10228 10225 10224 10223 10220 10216 10210 10205 10203 10201 10197
10569 10569 10569 10568 10568 10568 10568 10567 10566 10565 10563 10562 10560 10559 10557 10554 10551 10548 10545 10542 10539 10537 10534 10531 10528 10525 10521 10517 10513 10509 10506 10500 10494 10487 10481 10476 10471 10467 10461 10455 10449 10443 10436 10430 10423 10415 10406 10399 10395 10394 10392 10386 10375 10366 10360 10353 10345 10337 10330 10321 10312 10304 10296 10286 10278 10271 10267 10267 10259 10243 10236 10237 10234 10228 10224 10219 10214 10209 10205 10204 10204 10202 10199 10195 10190 10186 10184 10180
10567 10567 10567 10567 10567 10566 10566 10565 10564 10562 10560 10558 10557 10555 10552 10549 10546 10543 10540 10536 10534 10531 10529 10525 10522 10518 10514 10509 10505 10501 10497 10493 10487 10480 10474 10468 10463 10458 10453 10447 10440 10433 10427 10420 10413 10405 10397 10387 10380 10376 10375 10374 10370 10362 10355 10350 10340 10328 10319 10310 10302 10296 10288 10279 10272 10262 10254 10252 10244 10229 10223 10224 10217 10210 10206 10200 10194 10190 10186 10183 10183 10182 10181 10178 10173 10170 10167 10164
10566 10566 10566 10566 10565 10564 10563 10562 10560 10559 10557 10554 10553 10550 10548 10545 10541 10538 10534 10531 10529 10526 10523 10519 10515 10512 10507 10502 10497 10492 10487 10483 10478 10472 10466 10460 10454 10448 10442 10436 10429 10422 10416 10409 10402 10395 10388 10378 10368 10360 10353 10349 10348 10345 10340 10338 10334 10325 10313 10303 10294 10287 10279 10269 10261 10252 10242 10239 10233 10218 10208 10210 10205 10194 10189 10183 10176 10172 10168 10163 10160 10158 10158 10158 10155 10152 10149 10147
10564 10564 10564 10563 10563 10561 10560 10558 10557 10555 10553 10550 10548 10546 10543 10540 10536 10533 10530 10526 10523 10520 10517 10513 10508 10505 10500 10495 10490 10485 10478 10473 10468 10462 10456 10450 10443 10437 10431 10425 10418 10412 10405 10397 10390 10383 10376 10367 10358 10348 10337 10327 10323 10321 10315 10310 10309 10305 10299 10290 10281 10274 10267 10257 10247 10239 10228 10222 10221 10209 10195 10194 10193 10184 10176 10170 10163 10158 10153 10148 10143 10137 10135 10136 10135 10132 10128 10125
10563 10563 10562 10561 10560 10558 10557 10555 10553 10551 10549 10546 10544 10541 10538 10535 10532 10529 10525 10521 10517 10513 10509 10505 10501 10497 10493 10488 10483 10477 10471 10465 10459 10453 10447 10441 10434 10427 10421 10415 10408 10400 10393 10386 10378 10371 10365 10358 10349 10340 10328 10314 10307 10304 10298 10290 10285 10281 10276 10270 10263 10256 10250 10241 10231 10223 10214 10206 10204 10198 10186 10178 10177 10172 10165 10159 10153 10147 10140 10135 10131 10125 10119 10118 10118 10115 10109 10104
10561 10560 10559 10558 10557 10555 10553 10552 10549 10547 10544 10541 10539 10537 10534 10531 10527 10522 10519 10514 10510 10505 10501 10497 10493 10489 10485 10480 10476 10471 10465 10459 10452 10445 10438 10432 10425 10418 10411 10404 10398 10391 10384 10377 10369 10361 10355 10347 10340 10334 10323 10307 10298 10293 10286 10278 10270 10263 10256 10250 10244 10238 10232 10225 10217 10208 10201 10193 10187 10183 10176 10166 10160 10157 10152 10147 10141 10135 10128 10123 10120 10115 10110 10107 10106 10102 10095 10090
10559 10558 10557 10555 10554 10552 10550 10548 10545 10542 10540 10537 10534 10532 10529 10526 10522 10516 10512 10508 10503 10497 10493 10489 10485 10481 10476 10472 10467 10462 10456 10451 10446 10438 10431 10424 10417 10410 10403 10396 10389 10383 10376 10368 10359 10351 10344 10337 10330 10326 10318 10302 10290 10284 10275 10265 10257 10249 10241 10234 10228 10223 10216 10209 10201 10192 10187 10181 10172 10166 10161 10152 10143 10140 10136 10130 10124 10120 10114 10108 10104 10101 10098 10097 10094 10089 10082 10078
10556 10555 10553 10552 10550 10548 10546 10544 10541 10538 10535 10533 10530 10526 10523 10520 10516 10511 10506 10502 10497 10491 10486 10482 10477 10473 10468 10463 10457 10452 10446 10441 10436 10430 10423 10417 10409 10401 10395 10387 10379 10372 10364 10356 10349 10340 10332 10326 10317 10313 10308 10294 10280 10272 10263 10252 10243 10234 10226 10219 10213 10208 10202 10194 10186 10177 10171 10166 10159 10149 10142 10135 10127 10122 10117 10110 10104 10100 10095 10090 10085 10081 10080 10082 10080 10074 10070 10066
10553 10552 10550 10549 10547 10545 10542 10540 10537 10534 10531 10528 10525 10521 10517 10514 10510 10506 10500 10496 10491 10485 10479 10475 10470 10465 10460 10455 10449 10442 10436 10430 10424 10418 10411 10405 10398 10390 10383 10375 10368 10361 10353 10345 10338 10329 10321 10313 10304 10298 10295 10285 10271 10262 10253 10242 10232 10223 10214 10206 10200 10193 10187 10179 10170 10162 10154 10150 10146 10139 10130 10122 10115 10108 10102 10094 10085 10079 10075 10070 10066 10063 10062 10062 10062 10059 10057 10053
10551 10549 10547 10545 10543 10541 10538 10535 10532 10530 10527 10524 10520 10516 10512 10508 10504 10499 10495 10489 10484 10479 10473 10468 10463 10458 10453 10447 10440 10433 10426 10419 10413 10406 10399 10393 10386 10378 10370 10362 10354 10348 10342 10334 10326 10317 10309 10300 10291 10283 10280 10274 10262 10252 10243 10231 10220 10212 10203 10195 10187 10179 10173 10166 10158 10149 10139 10131 10126 10122 10117 10110 10103 10096 10091 10085 10075 10065 10058 10052 10047 10045 10046 10043 10041 10041 10040 10037